TimePST,TemperatureF,Dew PointF,Humidity,Sea Level PressureIn,VisibilityMPH,Wind Direction,Wind SpeedMPH,Gust SpeedMPH,PrecipitationIn,Events,Conditions,WindDirDegrees,DateUTC
12:56 AM,30.0,5.0,35,30.22,10.0,WNW,3.5,-,N/A,,Clear,300,2014-01-18 08:56:00
1:56 AM,28.0,3.9,36,30.22,10.0,Calm,Calm,-,N/A,,Clear,0,2014-01-18 09:56:00
2:56 AM,28.9,3.9,35,30.22,10.0,Calm,Calm,-,N/A,,Clear,0,2014-01-18 10:56:00
3:56 AM,28.9,5.0,36,30.21,10.0,Calm,Calm,-,N/A,,Clear,0,2014-01-18 11:56:00
4:56 AM,30.0,6.1,36,30.21,10.0,Calm,Calm,-,N/A,,Clear,0,2014-01-18 12:56:00
5:56 AM,21.9,3.0,44,30.25,10.0,Calm,Calm,-,N/A,,Clear,0,2014-01-18 13:56:00
6:56 AM,21.9,3.0,44,30.28,10.0,Calm,Calm,-,N/A,,Clear,0,2014-01-18 14:56:00
7:56 AM,28.0,7.0,41,30.29,5.0,Calm,Calm,-,N/A,,Haze,0,2014-01-18 15:56:00
8:56 AM,37.0,8.1,30,30.30,10.0,Calm,Calm,-,N/A,,Clear,0,2014-01-18 16:56:00
9:56 AM,45.0,8.1,22,30.31,10.0,Calm,Calm,-,N/A,,Clear,0,2014-01-18 17:56:00
10:56 AM,53.1,9.0,17,30.28,10.0,Calm,Calm,-,N/A,,Clear,0,2014-01-18 18:56:00
11:56 AM,57.9,6.1,13,30.25,10.0,Calm,Calm,-,N/A,,Clear,0,2014-01-18 19:56:00
12:56 PM,63.0,6.1,11,30.20,10.0,ESE,3.5,-,N/A,,Clear,110,2014-01-18 20:56:00
1:56 PM,64.9,5.0,9,30.17,10.0,Variable,3.5,-,N/A,,Clear,0,2014-01-18 21:56:00
2:56 PM,68.0,3.9,8,30.15,10.0,NE,3.5,-,N/A,,Clear,40,2014-01-18 22:56:00
3:56 PM,66.9,3.9,8,30.16,10.0,ENE,5.8,-,N/A,,Clear,60,2014-01-18 23:56:00
4:56 PM,63.0,7.0,11,30.17,10.0,Calm,Calm,-,N/A,,Clear,0,2014-01-19 00:56:00
5:56 PM,48.9,8.1,19,30.21,10.0,WSW,4.6,-,N/A,,Clear,240,2014-01-19 01:56:00
6:56 PM,42.1,7.0,24,30.23,10.0,West,5.8,-,N/A,,Clear,280,2014-01-19 02:56:00
7:56 PM,39.9,6.1,25,30.22,10.0,West,8.1,-,N/A,,Clear,280,2014-01-19 03:56:00
8:56 PM,39.9,6.1,25,30.22,10.0,Calm,Calm,-,N/A,,Clear,0,2014-01-19 04:56:00
9:56 PM,36.0,5.0,27,30.22,10.0,WNW,5.8,-,N/A,,Clear,290,2014-01-19 05:56:00
10:56 PM,35.1,6.1,30,30.22,10.0,West,4.6,-,N/A,,Clear,260,2014-01-19 06:56:00
11:56 PM,34.0,6.1,31,30.21,10.0,West,4.6,-,N/A,,Clear,270,2014-01-19 07:56:00